User: anonymous   Login
Location: C�mpuri de-Sus
(45.9500°N, 22.5500°E)
Time: 12:46:14
(UTC+00:00)
Language:

Cosmos 2278 Rocket - Orbit

View from above orbital plane
View from above orbital plane
View from above satellite
View from above satellite

Ground track
Ground track

The orbit data is extracted from the following two-line orbital elements,

1 23088U 94023B   22272.89375792  .00000105  00000-0  79361-4 0  9990
2 23088  70.9999 189.6404 0002210   7.4061 352.7093 14.14718085468322
Epoch (UTC): 29 September 2022 21:27:00
Eccentricity: 0.0002210
inclination: 70.9999°
perigee height: 841 km
apogee height: 845 km
right ascension of ascending node: 189.6404°
argument of perigee: 7.4061°
revolutions per day: 14.14718085
mean anomaly at epoch: 352.7093°
orbit number at epoch: 46832

The dashed part of the orbit path shows where the satellite is in the earth's shadow,  

DLR